SL-16 R/B

Satellite information

Favourite Embed

Satellite Type and Status

ROCKET BODYIN ORBIT

Key statistics

Satellite SL-16 R/B at a glance.

Uptime

13567

Days in orbit

Revolutions

≈ 14.2

Per day

Orbit

LEO

Low Earth Orbit

Inclination

71.0

Latest

Satellite identification and parameters

Extended collection of information and parameters for SL-16 R/B.

Object identification

Identified? True

Debris? False

Object name: SL-16 R/B

International designator: 1988-039B

Object number (NORAD): 19120

Object ID (CCSDS): 19120

Country: COMMONWEALTH OF INDEPENDENT STATES (CIS)

Current information (Y/N): Y

RCS size: LARGE

Orbital parameters

Period: 101.439 minutes

Inclination: 71.0131 deg

SMA: 7204.956 km

Apoapsis: 842.772 km

Periapsis: 810.871 km

RAAN: 228.9481 deg

Eccentricy: 0.0022138

Argument of periapsis: 351.6713 deg

Mean anomaly: 8.4042 deg

Mean motion: 14.19566504 rev/day

Mean motion (dot): 0.00000099 rev/day2

B* drag term: 0.000069601 1/REarth

Two-line elements (TLE)

Creation date: July 6, 2025, 6:05 p.m.

Reference frame: TEME

Reference center: EARTH

Epoch: July 6, 2025, 1:37 p.m. UTC

TLE line 0: 0 SL-16 R/B

TLE line 1: 1 19120U 88039B 25187.56739123 .00000099 00000-0 69601-4 0 9994

TLE line 2: 2 19120 71.0131 228.9481 0022138 351.6713 8.4042 14.19566504923456

Live tracking on map

Real-time ground track for satellite SL-16 R/B.

In-orbit conjunctions

A list of the most updated potential collisions computed for object SL-16 R/B.

Target Orbit TCA Probability of collision Miss distance Type
CZ-6A DEB SSO 2025-07-09 18:23:06 0.000101742 818.0 (m) DEBRIS
COSMOS 1275 DEB LEO 2025-01-28 11:13:43 0.0001896602 227.0 (m) DEBRIS
METEOR 1-11 LEO 2024-12-16 17:01:55 0.0003633353 81.0 (m) PAYLOAD
DMSP 5D-3 F19 DEB SSO 2024-10-05 21:15:21 0.0002461094 193.0 (m) DEBRIS
CZ-6A DEB SSO 2024-09-27 09:47:19 0.0002148354 898.0 (m) DEBRIS

Associated space launch

Second generation ELING satellite

SL-16 R/B was lifted into orbit during the mission ‘Zenit-2 | Tselina-2 5’, on board a Zenit-2 space rocket.

The launch took place on May 15, 1988, 9:20 a.m. from 45/1.

For more information about the launch, click the button.

Launch to space Zenit-2 | Tselina-2 5
Zenit-2 | Tselina-2 5

Agency: N/A

Status: Launch Successful

Launch date: May 15, 1988, 9:20 a.m. UTC

Rocket: Zenit-2

Launch pad: 45/1

Location: Baikonur Cosmodrome, Republic of Kazakhstan

...

Latest news about this satellite

There are no fresh news available about this satellite. Check back as we update our databases every day.


Newsletter sign-up

Weekly statistics, charts and insights to help you stay on top of the space industry.